SL-16 DEB, 28042

Orbit data source: Space-Track

SL-16 DEB, 28042 is space debris in LEO originally from a launch on Fri, 25 Dec 1992 UTC launched from the Tyuratam Missile And Space Complex (TTMTR). Debris objects in space refer to the collection of defunct objects orbiting the Earth. Examples of debris include non-operational satellites, rocket bodies, and fragments generated from explosions, collisions, or faulty payload assembly.

Loading next visibility...
Identifier
28042, 1992-093JP
Orbit
LEO
Country
Flag of CISCIS
Related business
Manufacturer
Unknown
Mission
Spacecraft
Bus & Motor
Unknown
Mass
Unknown
Launch date (UTC)
1992-12-25 (33 years ago)
Launch vehicle
Unknown
Launch site
Tyuratam Missile And Space Complex (TTMTR)
Object type
Payload
Rocket body
Debris
Shape & HBR
Unknown shape, 0.1 m
Radar Cross Section
Small (<0.1 m²)

Expand to show TLE details & history
Last TLE update: 21 hours ago

TLE from 21 hours ago
0 SL-16 DEB
1 28042U 92093JP  25349.18794296  .00000931  00000-0  50617-3 0  9993
2 28042  70.8738  15.4604 0069813  21.3883  43.6746 14.13697244486844
Epoch: 2025-12-15T04:30Z
TLE epoch observation values (Epoch: 2025-12-15T04:30:38.271Z)
Latitude
59.48781°
Longitude
-100.46282°
Altitude
819.975 km
Speed
7.468 km/s
True Right ascension
03h 25m 08s
True Declination
59° 20' 18"
Sunlit
Object was in full shadow at epoch
Visualization orbit readout
Latitude
Unknown
Longitude
Unknown
Altitude
Unknown
Speed
Unknown
Apparent Right ascension
Unknown
Apparent Declination
Unknown
Sunlit
N/A
Visualization observer readout
Local Sidereal Time
00:24:22
Azimuth
Unknown
Elevation
Unknown
Doppler factor
Unknown
Orbital elements
Apogee altitude
895.11 km
Perigee altitude
794.261 km
Semi-major axis
7,222.823 km
Eccentricity
0.00698
Inclination
70.8738°
RAAN
15.4604°
Arg. of periapsis
21.3883°
True anomaly
44.23055°
Mean anomaly
43.6746°
Eccentric anomaly
43.95222°
Mean motion
3.53576 °/min
Orbital period
101.82 mins
BSTAR
0.00050617
Loading maneuver chart data...
Computing Atmospheric mass density...
Loading historical data...
Loading historical data...
Loading historical data...
Loading historical data...
Loading historical data...
Loading historical data...
Loading historical data...

Documentation

Showing up to 5 results
|